Regional Weather Roundup
Issued by NWS Goodland, KS

Home | Current Version | Previous Version | Graphics & Text | Print | Product List | Glossary On
Versions: 1 2 3 4 5 6 7 8 9 10 11 12 13 14 15 16 17 18 19 20 21 22 23 24 25 26 27 28 29 30 31 32 33 34 35 36 37 38 39 40 41 42 43 44 45 46 47 48 49 50
000
ASUS43 KGLD 250408
RWRGLD

GOODLAND FORECAST AREA HOURLY WEATHER ROUNDUP
NATIONAL WEATHER SERVICE GOODLAND KS
1000 PM MDT THU MAY 24 2018

...OFFICIAL OBSERVATIONS...

CITY           SKY/WX    TMP DP  RH WIND       PRES   REMARKS
GOODLAND KS    CLEAR     65  48  54 S9        30.01R
HILL CITY KS   CLOUDY    64  57  78 E18G30    29.94F
IMPERIAL NEB   PTCLDY    70  59  68 CALM      29.97R
MCCOOK NEB     PTCLDY    71  52  50 SW8       29.94R
AKRON CO       CLEAR     64  49  57 S3        30.07R
BURLINGTON CO  CLEAR     58  51  78 S12       30.04R
LIMON CO       CLEAR     52  43  71 S3        30.14R
$$

...UNOFFICIAL OBSERVATIONS...

CITY           SKY/WX    TMP DP  RH WIND       PRES   REMARKS
COLBY KS       PTCLDY    63  50  63 CALM      30.00R
NORTON KS      PTCLDY    70  52  52 SW6       29.95
SHARON SPRINGS   N/A     60  54  80 MISG        N/A
KIT CARSON CO    N/A     55  47  75 CALM        N/A
YUMA CO        FAIR      61  43  51 SW7       30.03S
$$




USA.gov is the U.S. government's official web portal to all federal, state and local government web resources and services.